Location: Kalberh�ni
(46.4610°N, 7.2453°E)
Time: 21:53:01
(UTC+00:00)

USA 229 - Pass Details

Date: 31 October 2021
Orbit: 946 x 1266 km, 63.4° (Epoch: 25 November)

Event Time Altitude Azimuth Distance (km) Brightness Sun altitude
Rises 17:43:07 0° 240° (WSW) 3,653 7.7 -15.2°
Reaches altitude 10° 17:45:43 10° 246° (WSW) 2,736 7.0 -15.7°
Maximum altitude 17:51:54 48° 320° (NW) 1,322 4.4 -16.7°
Drops below altitude 10° 17:58:34 10° 34° (NE) 2,945 5.7 -17.9°
Enters shadow 17:59:03 - 35° (NE) 3,111 5.8 -18.0°
